#timestamp,LO_Frequency,Hit,StdDev 
1596474015.7,286046998.5,N
1596474035.6,286046998.6,N
1596474055.4,286046998.1,N
1596474075.2,286046998.2,N
1596474095.1,286047000.8,N
1596474096.0,286047000.8,N
1596474115.8,286046998.6,N
1596474135.6,286046998.7,N
1596474155.5,286046998.4,N
1596474175.3,286046998.8,N
1596474195.2,286046999.6,N
1596474215.9,286046996.5,Y
1596474235.7,286046998.8,P
1596474255.6,286047001.1,P
1596474275.4,286047001.0,N
1596474295.3,286047001.1,N
1596474315.1,286047000.7,N
1596474316.0,286047000.7,N
1596474335.8,286047000.7,N
1596474355.7,286047000.5,N
1596474375.5,286047000.9,N
1596474395.4,286047000.3,N
1596474415.2,286047000.9,N
1596474435.0,286047001.0,N
1596474435.9,286047001.0,N
1596474455.8,286047000.4,N
1596474475.6,286046998.7,N
1596474495.5,286046998.2,N
1596474515.3,286047000.5,N
1596474535.1,286046998.6,N
1596474555.9,286046998.9,N
1596474575.7,286046998.2,N
1596474595.6,286046998.1,N
1596474615.4,286047000.8,N
1596474635.2,286047000.8,N
1596474655.1,286047001.2,N
1596474656.0,286047001.2,N
1596474675.8,286047001.0,N
1596474695.6,286047000.6,N
1596474715.5,286047000.9,N
1596474735.3,286047000.5,N
1596474755.2,286046998.5,N
1596474775.9,286047000.8,N
1596474795.7,286047000.0,N
1596474815.6,286047000.9,N
1596474835.4,286047002.4,N
1596474855.3,286047002.4,N
1596474875.1,286047002.8,N
1596474895.2,286047000.1,N
1596474915.1,286047002.7,N
1596474916.0,286047002.7,N
1596474935.8,286046999.7,N
1596474955.6,286047001.8,N
1596474975.5,286046999.8,N
1596474995.3,286046999.7,N
1596475015.2,286047000.5,N
1596475035.9,286047002.5,N
1596475055.7,286047002.4,N
1596475075.6,286047002.0,N
1596475095.4,286047001.3,N
1596475115.3,286047001.7,N
1596475135.1,286047002.0,N
1596475136.0,286047002.0,N
1596475155.8,286047004.4,Y
1596475175.7,286047002.3,P
1596475195.5,286046999.8,N
1596475215.4,286047002.7,N
1596475235.2,286047002.1,N
1596475255.0,286047002.7,N
1596475255.9,286047002.7,N
1596475275.8,286047002.2,N
1596475295.6,286047002.1,N
1596475315.4,286047001.5,N
1596475335.3,286047001.6,N
1596475355.1,286047001.5,N
1596475375.9,286047002.5,Y
1596475395.7,286047001.2,P
1596475415.5,286046998.1,P
1596475435.4,286047001.1,N
1596475455.2,286046998.6,N
1596475475.1,286046997.0,N
1596475476.0,286046997.0,N
1596475495.8,286046996.5,N
1596475515.7,286046999.4,N
1596475535.5,286046998.8,N
1596475555.3,286046998.4,N
1596475575.2,286046998.4,N
1596475595.0,286046998.7,N
1596475595.9,286046998.7,N
1596475615.7,286046998.7,N
1596475635.6,286046998.6,N
1596475655.4,286047000.3,N
1596475675.3,286047001.2,N
1596475695.1,286046998.4,N
1596475715.8,286046998.3,N
1596475735.7,286046998.6,N
1596475755.5,286047001.0,N
1596475775.4,286047000.8,N
1596475795.2,286047000.8,N
1596475815.0,286047000.7,N
1596475815.9,286047000.7,N
1596475835.8,286047002.8,N
1596475855.6,286046999.9,N
1596475875.5,286047002.5,N
1596475895.3,286047002.1,N
1596475915.1,286047002.1,N
1596475935.9,286047002.2,N
1596475955.7,286047001.7,N
1596475975.6,286047002.7,N
1596475995.4,286047002.0,N
1596476015.2,286047002.4,N
1596476035.1,286047002.3,N
1596476036.0,286047002.3,N
1596476055.8,286047002.1,N
1596476075.7,286047000.2,N
1596476095.5,286047002.8,N
1596476115.3,286046999.7,N
1596476135.2,286047001.8,N
1596476155.0,286047002.7,N
1596476155.9,286047002.7,N
1596476175.7,286047002.1,N
1596476195.6,286047001.5,N
1596476215.4,286047004.4,Y
1596476235.3,286047000.1,P
1596476255.1,286047002.8,P
1596476275.8,286047002.2,N
1596476295.7,286047001.9,N
1596476315.5,286047001.5,N
1596476335.4,286047001.5,N
1596476355.2,286047002.8,Y
1596476375.0,286047001.2,P
1596476375.9,286047001.2,P
1596476395.8,286046998.1,P
1596476415.6,286046999.3,N
1596476435.5,286046998.9,N
1596476455.3,286046998.5,N
1596476475.1,286046998.5,N
1596476495.9,286046998.3,N
1596476515.7,286046998.2,N
1596476535.5,286046998.5,N
1596476555.4,286046998.7,N
1596476575.2,286046998.3,N
1596476595.1,286046998.6,N
1596476596.0,286046998.6,N
1596476615.8,286046998.2,N
1596476635.7,286047001.1,N
1596476655.5,286046998.1,N
1596476675.3,286046998.1,N
1596476695.2,286047000.5,N
1596476715.0,286046998.4,N
1596476715.9,286046998.4,N
1596476735.7,286046998.2,N
1596476755.6,286046998.3,N
1596476775.4,286046999.0,N
1596476795.3,286046998.9,N
1596476815.1,286047000.9,N
1596476816.0,286047000.9,N
1596476835.8,286047001.1,N
1596476855.7,286047001.1,N
1596476875.5,286047000.6,N
1596476895.4,286046998.6,N
1596476915.2,286046998.5,N
1596476935.0,286046998.2,N
1596476935.9,286046998.2,N
1596476955.8,286046998.2,N
1596476975.6,286046998.5,N
1596476995.4,286046998.5,N
1596477015.3,286046998.1,N
1596477035.1,286046998.3,N
1596477055.9,286047001.0,N
1596477075.7,286047000.5,N
1596477095.5,286046998.5,N
1596477115.4,286046998.6,N
1596477135.2,286047001.1,N
1596477155.1,286046998.5,N
1596477156.0,286046998.5,N
1596477175.8,286046999.6,N
1596477195.6,286046998.7,N
1596477215.5,286047001.2,N
1596477235.3,286046998.9,N
1596477255.1,286046998.3,N
1596477275.9,286046996.9,N
1596477295.7,286046999.5,N
1596477315.6,286046999.6,N
1596477335.4,286046999.0,N
1596477355.2,286046998.9,N
1596477375.1,286046999.2,N
1596477376.0,286046999.2,N
1596477395.8,286046999.6,N
1596477415.7,286046999.1,N
1596477435.5,286046998.9,N
1596477455.3,286046996.5,Y
1596477475.2,286047000.6,P
1596477495.0,286046998.6,N
1596477495.9,286046998.6,N
1596477515.8,286046998.2,N
1596477535.6,286046998.3,N
1596477555.4,286046999.0,N
1596477575.3,286047001.1,N
1596477595.1,286046999.0,N
